Volver al catálogo

COSMOS 397 DEB

ActivoLEO
NORAD 5155·DEBRIS·🇷🇺 Russia

Lanzado Feb 25, 1971 desde Baikonur Cosmodrome

Loading…

Próximos Pases (próximas 24 horas)

TLE

ActualizadoSource: Space-Track

Época: Sep 13, 2026, 20:25 UTC

1 05155U 71015AJ  26256.85132257  .00003777  00000-0  43737-3 0  9995
2 05155  65.3511  65.7749 0289235 308.9264  48.6371 14.61208485760683

Sigue COSMOS 397 DEB en tiempo real con AllMySat

Download on the App Store